VK6HGR-1 Weather Reports


time (UTC)temp
F
wind
direction
speed
knots
gust
knots
rain 1hr
in
rain 24hr
in
rain mn
in
humidity
%
barometer
mb
20260505224510 56 0.0 0.0 0.00 0.00 0.00 68 1025.6
20260505223012 56 0.0 0.0 0.00 0.00 0.00 68 1025.5
20260505221514 56 0.0 0.0 0.00 0.00 0.00 68 1025.3
20260505220011 56 0.0 0.0 0.00 0.00 0.00 67 1025.2
20260505214513 57 0.0 0.0 0.00 0.00 0.00 67 1025.2
20260505213010 57 0.0 0.0 0.00 0.00 0.00 67 1025.0
20260505211548 57 0.0 0.0 0.00 0.00 0.00 67 1024.8
20260505211512 57 0.0 0.0 0.00 0.00 0.00 67 1024.8
20260505210011 57 0.0 0.0 0.00 0.00 0.00 67 1024.8
20260505204514 57 0.0 0.0 0.00 0.00 0.00 67 1024.6
20260505203011 57 0.0 0.0 0.00 0.00 0.00 67 1024.6
20260505201510 58 0.0 0.0 0.00 0.00 0.00 66 1024.4
20260505200010 58 0.0 0.0 0.00 0.00 0.00 66 1024.4
20260505194510 58 0.0 0.0 0.00 0.00 0.00 66 1024.3
20260505193013 59 0.0 0.0 0.00 0.00 0.00 65 1024.3
20260505191916 59 0.0 0.0 0.00 0.00 0.00 65 1024.3
20260505191510 59 0.0 0.0 0.00 0.00 0.00 65 1024.3
20260505190010 59 0.0 0.0 0.00 0.00 0.00 65 1024.1
20260505184515 59 0.0 0.0 0.00 0.00 0.00 64 1024.1
20260505183010 60 0.0 0.0 0.00 0.00 0.00 64 1024.2
20260505181513 60 0.0 0.0 0.00 0.00 0.00 63 1024.3
20260505180010 60 0.0 0.0 0.00 0.00 0.00 63 1024.2
20260505174512 60 0.0 0.0 0.00 0.00 0.00 63 1024.2
20260505173013 60 0.0 0.0 0.00 0.00 0.00 63 1024.1
20260505171510 59 0.0 0.0 0.00 0.00 0.00 63 1024.1
20260505170011 60 0.0 0.0 0.00 0.00 0.00 63 1024.0
20260505164511 60 0.0 0.0 0.00 0.00 0.00 62 1023.9
20260505163011 60 0.0 0.0 0.00 0.00 0.00 62 1023.8
20260505161510 60 0.0 0.0 0.00 0.00 0.00 62 1023.7
20260505153010 60 0.0 0.0 0.00 0.00 0.00 62 1023.8
20260505151510 59 0.0 0.0 0.00 0.00 0.00 63 1023.7
20260505124511 64 0.0 0.0 0.00 0.00 0.00 62 1023.5
20260505123014 65 0.0 0.0 0.00 0.00 0.00 62 1023.5
20260505121511 65 0.0 0.0 0.00 0.00 0.00 61 1023.4
20260505120013 66 0.0 0.0 0.00 0.00 0.00 61 1023.4
20260505114511 66 0.0 0.0 0.00 0.00 0.00 61 1023.4
20260505113012 66 0.0 0.0 0.00 0.00 0.00 60 1023.3
20260505111514 67 0.0 0.0 0.00 0.00 0.00 60 1023.3
20260505101510 69 0.0 0.0 0.00 0.00 0.00 58 1022.5
20260505100012 70 0.0 0.0 0.00 0.00 0.00 58 1022.4
20260505094511 70 0.0 0.0 0.00 0.00 0.00 57 1022.3
20260505093010 71 0.0 0.0 0.00 0.00 0.00 56 1022.1
20260505091510 72 0.0 0.0 0.00 0.00 0.00 54 1022.0
20260505090012 73 0.0 0.0 0.00 0.00 0.00 52 1021.9
20260505084512 73 0.0 0.0 0.00 0.00 0.00 51 1021.8
20260505083011 74 0.0 0.0 0.00 0.00 0.00 49 1021.7
20260505081511 75 0.0 0.0 0.00 0.00 0.00 47 1021.7
20260505080011 75 0.0 0.0 0.00 0.00 0.00 43 1021.7
20260505074511 76 0.0 0.0 0.00 0.00 0.00 43 1021.6
20260505073011 76 0.0 0.0 0.00 0.00 0.00 43 1021.6
20260505071512 76 0.0 0.0 0.00 0.00 0.00 42 1021.5
20260505070010 76 0.0 0.0 0.00 0.00 0.00 42 1021.6
20260505064511 76 0.0 0.0 0.00 0.00 0.00 42 1021.6
20260505063014 76 0.0 0.0 0.00 0.00 0.00 43 1021.6
20260505061512 76 0.0 0.0 0.00 0.00 0.00 42 1021.6
20260505060014 76 0.0 0.0 0.00 0.00 0.00 43 1021.7
20260505054510 76 0.0 0.0 0.00 0.00 0.00 42 1021.8
20260505053011 77 0.0 0.0 0.00 0.00 0.00 42 1021.8
20260505051514 76 0.0 0.0 0.00 0.00 0.00 43 1021.9
20260505041511 74 0.0 0.0 0.00 0.00 0.00 46 1022.8
20260505040013 74 0.0 0.0 0.00 0.00 0.00 48 1023.0
20260505034510 73 0.0 0.0 0.00 0.00 0.00 49 1023.3
20260505033009 72 0.0 0.0 0.00 0.00 0.00 50 1023.5
20260505031510 71 0.0 0.0 0.00 0.00 0.00 51 1023.7
20260505030011 70 0.0 0.0 0.00 0.00 0.00 53 1023.8
20260505024512 69 0.0 0.0 0.00 0.00 0.00 54 1023.9
20260505023011 69 0.0 0.0 0.00 0.00 0.00 55 1024.0
20260505021510 68 0.0 0.0 0.00 0.00 0.00 56 1024.0
20260505020010 66 0.0 0.0 0.00 0.00 0.00 54 1024.1
20260505014510 65 0.0 0.0 0.00 0.00 0.00 57 1024.1
20260505013013 64 0.0 0.0 0.00 0.00 0.00 58 1024.2
20260505011510 63 0.0 0.0 0.00 0.00 0.00 60 1024.3
20260505010010 61 0.0 0.0 0.00 0.00 0.00 62 1024.2
20260505004510 60 0.0 0.0 0.00 0.00 0.00 64 1024.3
20260505003012 59 0.0 0.0 0.00 0.00 0.00 66 1024.2
20260505001511 57 0.0 0.0 0.00 0.00 0.00 68 1024.1
20260505000012 56 0.0 0.0 0.00 0.00 0.00 69 1024.0
20260504234514 56 0.0 0.0 0.00 0.00 0.00 70 1023.8
20260504233011 55 0.0 0.0 0.00 0.00 0.00 71 1023.6
20260504231510 55 0.0 0.0 0.00 0.00 0.00 72 1023.5
20260504230011 55 0.0 0.0 0.00 0.00 0.00 71 1023.4